Regional Weather Roundup
Issued by NWS Jackson, KY

Home | Current Version | Previous Version | Graphics & Text | Print | Product List | Glossary On
Versions: 1 2 3 4 5 6 7 8 9 10 11 12 13 14 15 16 17 18 19 20 21 22 23 24 25 26 27 28 29 30 31 32 33 34 35 36 37 38 39 40 41 42 43 44 45 46 47
000
ASUS43 KJKL 311810
RWRJKL

EAST KENTUCKY HOURLY WEATHER ROUNDUP
NATIONAL WEATHER SERVICE JACKSON KY
200 PM EDT FRI JUL 31 2015

NOTE: "FAIR" INDICATES FEW OR NO CLOUDS BELOW 12,000 FEET WITH
NO SIGNIFICANT WEATHER AND/OR OBSTRUCTIONS TO VISIBILITY.

* THESE REPORTS ARE NOT UNDER NWS QUALITY CONTROL AND MAY NOT
  REPORT WEATHER SUCH AS PRECIPITATION AND FOG.

KYZ079-080-083-085-087-088-110-112-115-119-120-311900
...EASTERN KENTUCKY...

CITY           SKY/WX    TMP DP  RH WIND       PRES   REMARKS
JACKSON        MOSUNNY   82  58  43 CALM      30.09F
6HR MIN TEMP:  65; 6HR MAX TEMP:  83;

LONDON         MOSUNNY   84  54  35 NE9       30.08F
6HR MIN TEMP:  64; 6HR MAX TEMP:  85;

SOMERSET*      SUNNY     82  52  34 NW3       30.09F
MONTICELLO*    SUNNY     85  62  45 CALM      30.11F
6HR MIN TEMP:  63; 6HR MAX TEMP:  85; 6HR PCP: TRACE;

WILLIAMSBURG*  SUNNY     81  57  44 N7        30.09F
MIDDLESBORO*   MOSUNNY   82  59  45 NW6       30.09S
6HR MIN TEMP:  60; 6HR MAX TEMP:  83;

HAZARD APT*    PTCLDY    82  57  42 NW6       30.08F
BLACK MTN*       N/A     72  59  64 VRB3        N/A
PIKEVILLE APT* MOSUNNY   81  61  50 W7        30.09F
BIG SANDY*     PTCLDY    82  60  48 N5        30.07F
6HR MIN TEMP:  64; 6HR MAX TEMP:  84;

MOREHEAD APT*  PTCLDY    84  59  42 NW5       30.08F
$$

KYZ035-036-041-042-044-050-067-078-099-311900
...CENTRAL KENTUCKY...

CITY           SKY/WX    TMP DP  RH WIND       PRES   REMARKS
MT STERLING*   MOSUNNY   82  61  47 NW6       30.08F
FLEMING/MASON* MOSUNNY   84  64  51 SW7       30.06F
DANVILLE*      SUNNY     82  57  42 NE3       30.09F
RICHMOND*      SUNNY     82  54  36 NW5       30.08F
LEXINGTON      MOSUNNY   83  62  49 W7G16     30.07F
6HR MIN TEMP:  66; 6HR MAX TEMP:  85;

FRANKFORT      MOSUNNY   85  58  39 W6        30.05F
6HR MIN TEMP:  64; 6HR MAX TEMP:  86;

$$

KYZ091>093-OHZ055-061-077-WVZ005-015-034-035-042-311900
...SOUTHERN OHIO/WEST VIRGINIA...

CITY           SKY/WX    TMP DP  RH WIND       PRES   REMARKS
COVINGTON      MOSUNNY   85  59  41 W6        30.04
COLUMBUS       MOSUNNY   87  58  37 W15G21    29.98F
DAYTON         MOSUNNY   83  63  50 W10       30.03F
WILMINGTON     SUNNY     84  59  42 NW9G18    30.02F
HUNTINGTON     MOSUNNY   85  56  37 SW9       30.03F
CHARLESTON     MOSUNNY   85  58  39 VRB6      30.03F
PINEVILLE*     PTSUNNY   83  60  45 MISG      30.13S
BECKLEY        MOSUNNY   77  54  44 W7        30.11F
BLUEFIELD      SUNNY     79  54  41 VRB5      30.14F
$$

VAZ002-007-008-TNZ017-027-036-066-071-311900
...SOUTHWEST VIRGINIA/EAST TENNESSEE...

CITY           SKY/WX    TMP DP  RH WIND       PRES   REMARKS
WISE*          SUNNY     79  48  34 NE5       30.15F
ABINGDON*      SUNNY     81  52  36 S3        30.11S
BRISTOL        MOSUNNY   83  55  38 E6        30.08F
KNOXVILLE      MOSUNNY   84  58  40 NE8G17    30.05F
OAK RIDGE      SUNNY     86  55  34 VRB6      30.08S
CROSSVILLE     SUNNY     81  52  36 NE15      30.12F
NASHVILLE      MOSUNNY   88  61  40 NE6       30.07F
$$

...KEY TO REMARKS...
VSB - VISIBILITY IN MILES
WCI - WIND CHILL INDEX
HX  - HEAT INDEX

$$


USA.gov is the U.S. government's official web portal to all federal, state and local government web resources and services.